Home > Weather > Geelong > Past weeks

Flag for Australia Past Weather in Geelong, Victoria, Australia — Yesterday and Last 2 Weeks

Now
41 °F

Quite cool.


Feels Like: 39 °F
Forecast: 34 / 52 °F
Wind: 3 mph from Northwest

Location: Geelong Airport Aws

Current Time: Jun 26, 2016 at 2:05:55 AM

Latest Report: Jun 26, 2016 at 12:00 AM


Visibility: N/A

Pressure: 30.16 "Hg

Humidity: 94%

Dew Point: 40 °F

Location of GeelongLocation

Past Weather in Geelong — Graph

°F

Geelong Temperature Yesterday

Maximum temperature yesterday: 54 °F (at 3:00 PM)
Minimum temperature yesterday: 39 °F (at 8:00 AM)
Average temperature yesterday: 45 °F

High & Low Weather Summary for the Past Weeks

 TemperatureHumidityPressure
High61 °F (Jun 15, 3:00 PM)97% (Jun 17, 9:00 AM)30.63 "Hg (Jun 17, 9:00 AM)
Low35 °F (Jun 14, 3:00 AM)57% (Jun 13, 3:00 PM)29.35 "Hg (Jun 23, 3:00 PM)
Average50 °F86%30.04 "Hg
* Reported Jun 11 12:00 AM — Jun 26 12:00 AM, Geelong, Weather by CustomWeather, © 2016

Note: Actual official high and low records may vary slightly from our data, if they occured in-between our weather recording intervals... More about our weather records

Advertising

Geelong Weather History for the Previous 24 Hours

Scroll right to see more
 ConditionsComfort  
Time TempWeatherWind HumidityBarometerVisibility
12:00 AM
Sun, Jun 26
41 °FQuite cool.3 mph94%30.16 "HgN/A
11:00 PM
Sat, Jun 25
42 °FQuite cool.3 mph93%30.17 "HgN/A
9:00 PM44 °FQuite cool.3 mph94%30.19 "HgN/A
8:00 PM44 °FQuite cool.2 mph93%30.19 "HgN/A
6:00 PM48 °FCool.2 mph89%30.19 "HgN/A
5:00 PM51 °FCool.3 mph77%30.17 "HgN/A
3:00 PM54 °FCool.7 mph74%30.18 "HgN/A
2:00 PM52 °FCool.7 mph83%30.18 "HgN/A
12:00 PM51 °FCool.8 mph80%30.20 "HgN/A
11:00 AM49 °FCool.9 mph87%30.21 "HgN/A
9:00 AM44 °FQuite cool.7 mph92%30.19 "HgN/A
8:00 AM39 °FChilly.7 mph93%30.17 "HgN/A
6:00 AM39 °FChilly.8 mph93%30.14 "HgN/A
5:00 AM40 °FQuite cool.6 mph93%30.13 "HgN/A
3:00 AM39 °FChilly.7 mph93%30.11 "HgN/A
2:00 AM39 °FChilly.5 mph93%30.09 "HgN/A
Weather by CustomWeather, © 2016

See weather overviewHow to use our weather pages